ETHCEKSP

Guest
Details From ETHC - CELLE
To EKSP - VOJENS SKRYDSTRUP [MIL]
Flight Number -
Tags generated
Created
Modified
Stats Distance 160 nm / 297 km
Max Altitude 14,100 ft / 4,298 m
Waypoints 3
Social Downloads 0
Likes 0
Share VATSIM

Download

Looking for another format? Having issues loading an existing format? Contact us
Advertisement - Login to hide

Notes

Basic altitude profile: - Ascent Rate: 2500ft/min - Ascent Speed: 250kts - Cruise Altitude: 35000ft - Cruise Speed: 420kts - Descent Rate: 1500ft/min - Descent Speed: 250kts Options: - Use NATs: yes - Use PACOTS: yes - Use low airways: yes - Use high airways: yes

Route

ETHC ABANO EKSP

ID Type Via Altitude Latitude Longitude Leg Dist Tot Dist Heading (true) Name
O ETHC APT - 0 ft / 0 m 52.59120˚ 10.02213˚ - 0 nm - CELLE
ABANO FIX - 14,100 ft / 4,298 m 54.12917˚ 9.50000˚ 94 nm 94 nm 349° / 348° -
O EKSP APT - 0 ft / 0 m 55.22007˚ 9.26626˚ 66 nm 160 nm 353° / 353° VOJENS SKRYDSTRUP [MIL]

Altitude Profile

Advertisement - Login to hide

ETHC

Details ICAO ETHC (ZCN)
Name CELLE
Region Germany - Military
Timezone Europe/Berlin (UTC+2.0)
Stats Elevation 129 ft / 39 m (AMSL)
Location 52.591198° 10.022134°
Runways 1
Magnetic Variation 2.845° E

METAR

ETHC 261520Z 04006KT 9999 FEW060 27/07 Q1021 BLU+

Decode

TAF

Not found

Departure Runways

ID Width Length Bearing (true) Bearing (mag) Surface Threshold Offset Overrun Length
08 148 ft / 45 m 5,989 ft / 1,825 m 80.71° 77.86° Asphalt 0 ft / 0 m 0 ft / 0 m
26 148 ft / 45 m 5,989 ft / 1,825 m 260.73° 257.88° Asphalt 0 ft / 0 m 994 ft / 303 m

EKSP

Details ICAO EKSP (SKS)
Name VOJENS SKRYDSTRUP [MIL]
Region Denmark / Faroe Islands
Timezone Europe/Copenhagen (UTC+2.0)
Stats Elevation 141 ft / 43 m (AMSL)
Location 55.220073° 9.266262°
Runways 2
Magnetic Variation 2.626° E

METAR

EKSP 261620Z 05008KT 010V090 CAVOK 23/11 Q1024

Decode

TAF

TAF EKSP 261422Z 2615/2712 06010KT 9999 FEW050 TEMPO 2615/2618 06012G25KT PROB40 2702/2705 3000 MIFG BR TEMPO 2710/2712 7000 -SHRA SCT030CB

Decode

Destination Runways

ID Width Length Bearing (true) Bearing (mag) Surface Threshold Offset Overrun Length
11L 151 ft / 46 m 9,834 ft / 2,998 m 105.46° 102.83° Asphalt 0 ft / 0 m 735 ft / 224 m
11R 79 ft / 24 m 9,722 ft / 2,963 m 105.45° 102.82° Asphalt 0 ft / 0 m 482 ft / 147 m
29L 79 ft / 24 m 9,722 ft / 2,963 m 285.49° 282.86° Asphalt 0 ft / 0 m 482 ft / 147 m
29R 151 ft / 46 m 9,834 ft / 2,998 m 285.50° 282.87° Asphalt 0 ft / 0 m 735 ft / 224 m

Approach Navaids

Runway Type Ident Frequency Range Bearing (true) Bearing (mag) Slope Elevation
29R Localiser SRY 109.35 MHz 18 nm / 33 km 285.46° 282.83° - 141 ft / 43 m (AMSL)
29R Glidescope SRY 109.35 MHz 10 nm / 19 km 285.48° 282.85° 2.75° 141 ft / 43 m (AMSL)